User: anonymous   Login
Location: Unspecified
(0.0000°N, 0.0000°E)
Time: 00:54:37
(UTC+01:00)
Language:

Cosmos 1933 - Orbit

View from above orbital plane
View from above orbital plane
View from above satellite
View from above satellite

Ground track
Ground track

The orbit data is extracted from the following two-line orbital elements,

1 18958U 88020A   16343.22176108  .00000218  00000-0  14056-4 0  9994
2 18958  82.5299 288.0828 0010892 205.0187 155.0512 15.03104670562848
Epoch (UTC): 08 December 2016 05:19:20
Eccentricity: 0.0010892
inclination: 82.5299°
perigee height: 550 km
apogee height: 565 km
right ascension of ascending node: 288.0828°
argument of perigee: 205.0187°
revolutions per day: 15.03104670
mean anomaly at epoch: 155.0512°
orbit number at epoch: 56284

The dashed part of the orbit path shows where the satellite is in the earth's shadow,  

DLR